Christian Sabionski

Accountable Manager AM

Head of Training HT

Kapitän CPL (A) / ATPL (A)         

Fluglehrer FI (A) für PPL, CPL,

 IR, MCCI und FI

Prüfer CRE (A) SEP (Land) 

Werkstattmeister

 

 

 

 

 

 

 

 

Marc Kanitz

Marc Kanitz

Berufspilot CPL (A) / ATPL (A)

Fluglehrer FI (A) für PPL

CRI SEP & TMG,  Cessna SET,  ACRO

Fluglotse

 

 

 

 

 

Dr. Silke Sabionski

Silke

Compliance Monitoring +

Safety Manager

PPL (A)

Theorie Lehrerin

Ärztin

 

 

 

 

 

 

 

Dietrich Mohr                   

Beauftragter für Technik BfT

Fluglehrer PPL & SIM

Co Pilot CPL (A) / ATPL (A)

Ingenieur Luft & Raumfahrt

 

 

 

 

 

 

Dr. Winthir Brunnbauer

Fluglehrer FI IR

Language Examiner

Kapitän ATPL (A) 

Winni.png - 7.54 MB

                                               

Flugwetter Augsburg

[source: ADDS]
METAR
EDMA 201750Z 31008KT 9999 -RA BKN008 BKN017 OVC068 14/13 Q1025 =
TAF EDMA 201700Z 2018/2103 33010KT 8000 BKN008 TEMPO 2018/2024 SCT008 BKN014 PROB30 TEMPO 2018/2103 4000 RADZ BKN004 BECMG 2019/2021 VRB03KT
TAF
TAF EDMA 201700Z 2018/2103 33010KT 8000 BKN008 TEMPO 2018/2024 SCT008 BKN014 PROB30 TEMPO 2018/2103 4000 RADZ BKN004 BECMG 2019/2021 VRB03KT =
Cookies erleichtern die Bereitstellung unserer Dienste. Mit der Nutzung unserer Dienste erklären Sie sich damit einverstanden, dass wir Cookies verwenden.
Weitere Informationen Ok